SCP
0 0 0 0 0 0 0 0 0 0 0 0 0 0 0 0 0 0 0 0 0 0 0 0 0 0 0 0 0 0 0 0 0 0 0 0 0 0 0 0 0 0 0 0
0 0 0 0 0 0 0 0 0 0 0 0 0 0 0 0 0 0 0 0 0 0 0 0 0 0 0 0 0 0 0 0 0 0 0 0 0 0 0 0 0 0 0 0
0 0 0 0 0 0 0 0 0 0 0 0 0 0 0 0 0 0 0 0 0 0 0 0 0 0 0 0 0 0 0 0 0 0 0 0 0 0 0 0 0 0 0 0
0 0 0 0 0 0 0 0 0 0 0 0 0 0 0 0 0 0 0 0 0 0 0 0 0 0 0 0 0 0 0 0 0 0 0 0 0 0 0 0 0 0 0 0
0 0 0 0 0 0 0 0 0 0 0 0 0 0 0 0 0 0 0 0 0 0 0 0 0 0 0 0 0 0 0 0 0 0 0 0 0 0 0 0 0 0 0 0
0 0 0 0 0 0 0 0 0 0 0 0 0 0 0 0 0 0 0 0 0 0 0 0 0 0 0 0 0 0 0 0 0 0 0 0 0 0 0 0 0 0 0 0
0 0 0 0 0 0 0 0 0 0 0 0 0 0 0 0 0 0 0 0 0 0 0 0 0 0 0 0 0 0 0 0 0 0 0 0 0 0 0 0 0 0 0 0
0 0 0 0 -0 0 0 0 0 0 0 0 0 0 0 0 0 0 0 0 0 0 0 0 0 0 0 0 0 0 0 0 0 0 0 0 0 0 0 0 0 0 0 0
0 0 0 -0 -0 0 0 0 0 0 0 0 0 0 0 0 0 0 0 0 0 0 0 0 0 0 0 0 0 0 0 0 0 0 0 0 0 0 0 0 0 0 0 0
0 0 0 0 0 0 0 0 0 0 0 0 0 0 0 0 0 0 0 0 0 0 0 0 0 0 0 0 0 0 0 0 0 0 0 0 0 0 0 0 0 0 0 0
0 0 0 0 0 0 0 0 0 0 0 0 0 0 0 0 0 0 0 0 0 0 0 0 0 0 0 0 0 0 0 0 0 0 0 0 0 0 0 0 0 0 0 0
0 0 0 0 0 0 0 0 0 0 0 0 0 0 0 0 0 0 0 0 0 0 0 0 0 0 0 0 0 0 0 0 0 0 0 0 0 0 0 0 0 0 0 0
0 0 0 0 0 0 0 0 0 0 0 0 0 0 0 0 0 0 0 0 0 0 0 0 0 0 0 0 0 0 0 0 0 0 0 0 0 0 0 0 0 0 0 0
0 0 0 0 0 0 0 0 0 0 0 0 0 0 0 0 0 0 0 0 0 0 0 0 0 0 0 0 0 0 0 0 0 0 0 0 0 0 0 0 0 0 0 0
0 0 0 0 0 0 0 0 0 0 0 0 0 0 0 0 0 0 0 0 0 0 0 0 0 0 0 0 0 0 0 0 0 0 0 0 0 0 0 0 0 0 0 0
0 0 0 0 0 0 0 0 0 0 0 0 0 0 0 0 0 0 0 0 0 0 0 0 0 0 0 0 0 0 0 0 0 0 0 0 0 0 0 0 0 0 0 0
0 0 0 0 0 0 0 0 0 0 0 0 0 0 0 0 0 0 0 0 0 0 0 0 0 0 0 0 0 0 0 0 0 0 0 0 0 0 0 0 0 0 0 0
0 0 0 0 0 0 0 0 0 0 0 0 0 0 0 0 0 0 0 0 0 0 0 0 0 0 0 0 0 0 0 0 0 0 0 0 0 0 0 0 0 0 0 0
0 0 0 0 0 0 0 0 0 0 0 0 0 0 0 0 0 0 0 0 0 0 0 0 0 0 0 0 0 0 0 0 0 0 0 0 0 0 0 0 0 0 0 0
0 0 0 0 0 0 0 0 0 0 0 0 0 0 0 0 0 0 0 0 0 0 0 0 0 0 0 0 0 0 0 0 0 0 0 0 0 0 0 0 0 0 0 0
0 0 0 0 0 0 0 0 0 0 0 0 0 0 0 0 0 0 0 0 0 0 0 0 0 0 0 0 0 0 0 0 0 0 0 0 0 0 0 0 0 0 0 0
0 0 0 0 0 0 0 0 0 0 0 0 0 0 0 0 0 0 0 0 0 0 0 0 0 0 0 0 0 0 0 0 0 0 0 0 0 0 0 0 0 0 0 0
0 0 0 0 0 0 0 0 0 0 0 0 0 0 0 0 0 0 0 0 0 0 0 0 0 0 0 0 0 0 0 0 0 0 0 0 0 0 0 0 0 0 0 0
0 0 0 0 0 0 0 0 0 0 0 0 0 0 0 0 0 0 0 0 0 0 0 0 0 0 0 0 0 0 0 0 0 0 0 0 0 0 0 0 0 0 0 0
0 0 0 0 0 0 0 0 0 0 0 0 0 0 0 0 0 0 0 0 0 0 0 0 0 0 0 0 0 0 0 0 0 0 0 0 0 0 0 0 0 0 0 0
0 0 0 0 0 0 0 0 0 0 0 0 0 0 0 0 0 0 0 0 0 0 0 0 0 0 0 0 0 0 0 0 0 0 0 0 0 0 0 0 0 0 0 0
0 0 0 0 0 0 0 0 0 0 0 0 0 0 0 0 0 0 0 0 0 0 0 0 0 0 0 0 0 0 0 0 0 0 0 0 0 0 0 0 0 0 0 0
Wind_Speed
9 11 10 12 14 13 15 16 16 19 25 27 22 18 14 11 10 10 9 6 3 1 2 2 4 7 10 11 11 12 12 11 11 12 13 14 13 12 12 12 12 11 10 8
7 12 13 15 16 15 14 15 16 20 22 15 13 11 9 8 8 7 5 4 1 3 5 5 6 9 10 10 9 10 11 12 13 14 14 14 13 13 13 12 11 10 8 7
5 6 9 8 6 6 6 8 10 11 11 13 12 9 8 9 8 6 4 3 3 6 6 7 8 10 10 10 10 11 11 13 13 15 15 14 14 13 12 11 9 8 6 5
5 7 4 1 5 4 7 10 9 10 12 11 8 4 6 8 8 6 4 5 7 8 9 10 10 10 11 11 12 12 12 13 13 14 15 14 13 12 10 8 7 6 5 4
3 5 8 4 2 1 4 6 3 6 10 9 6 1 6 11 9 7 7 8 9 10 11 11 11 11 13 13 12 13 13 13 13 13 14 13 12 10 8 7 6 5 4 3
3 4 5 1 2 2 1 4 1 5 8 8 7 3 5 9 10 10 11 10 10 11 12 12 11 12 14 13 13 13 13 12 12 11 12 12 10 8 6 6 5 4 3 2
6 5 7 5 1 1 2 4 5 5 5 4 4 3 4 7 9 10 10 11 11 11 11 11 11 13 14 13 13 12 12 12 11 11 10 9 8 6 6 5 4 3 2 1
5 6 8 2 1 2 4 3 3 3 2 4 6 6 7 7 8 8 9 10 10 11 11 10 11 12 14 13 12 11 12 12 11 9 8 8 7 6 5 4 3 1 1 1
7 7 5 2 2 2 2 3 3 2 3 6 7 7 7 7 7 8 8 9 9 10 12 11 10 10 14 12 11 12 12 11 10 9 7 6 6 5 4 3 2 2 2 2
4 6 6 2 3 4 4 3 3 2 4 5 8 8 8 7 7 7 7 8 9 11 13 12 10 9 11 11 10 12 12 10 8 7 6 6 5 4 3 3 3 3 3 3
5 7 4 3 4 3 4 3 4 5 6 8 9 9 8 7 7 7 8 8 9 10 13 12 10 10 9 9 10 11 10 8 6 6 5 5 4 3 3 3 3 2 2 2
4 1 2 2 3 3 4 4 5 7 8 7 8 9 9 8 7 7 9 9 10 11 12 11 10 10 8 8 8 9 8 6 5 4 4 3 3 2 1 1 1 2 3 4
4 0 2 3 3 4 5 6 6 7 8 9 8 9 9 9 8 9 10 10 10 11 11 10 10 9 8 7 8 9 7 6 4 4 4 3 3 3 3 3 3 5 5 7
0 1 1 3 4 6 7 8 8 9 8 8 9 9 9 10 10 10 10 9 10 11 11 10 10 9 7 8 9 8 7 7 6 4 4 3 3 3 2 3 3 4 5 10
1 0 2 6 7 7 7 8 9 9 9 9 8 9 10 11 11 10 9 9 10 11 10 10 10 8 7 8 8 8 6 4 4 4 3 3 3 3 2 3 3 3 3 5
2 3 4 6 7 7 7 8 9 9 9 9 9 10 10 10 11 10 8 8 10 10 8 9 9 7 6 7 7 6 5 8 6 3 3 3 3 3 3 3 3 3 4 4
2 3 4 5 7 7 7 7 8 10 10 11 11 12 11 11 11 10 9 8 9 10 8 8 7 6 7 7 6 4 4 4 6 4 3 3 3 3 3 3 3 4 4 7
5 5 6 7 9 9 9 9 9 10 11 12 13 12 11 11 11 10 9 9 11 10 8 7 7 7 7 6 5 4 3 3 2 2 2 2 2 2 3 3 4 4 4 7
5 3 3 6 8 8 9 10 10 11 12 12 12 11 10 10 10 10 9 9 10 8 5 6 11 8 6 6 5 4 3 3 2 2 2 4 4 3 3 3 4 4 5 6
4 2 1 5 7 8 10 10 11 11 11 12 12 13 12 10 9 9 9 7 4 5 6 7 7 6 5 4 5 3 3 3 2 2 2 2 3 3 3 4 4 4 5 5
5 2 2 5 7 8 9 11 12 13 12 12 13 13 12 10 9 9 9 7 5 7 7 9 5 4 4 3 4 3 3 2 2 2 2 3 3 3 3 4 4 6 6 6
4 2 3 5 7 8 8 8 10 12 13 12 12 12 12 11 9 8 6 5 6 10 6 4 4 5 4 4 3 2 2 2 2 2 2 3 3 3 3 4 4 5 5 5
4 2 3 5 6 7 8 8 9 10 11 12 13 13 12 9 7 8 7 5 5 9 6 4 6 7 5 3 2 2 2 2 2 2 3 3 3 3 4 4 4 5 5 5
3 3 3 5 6 7 7 7 7 8 9 9 8 9 11 9 6 4 6 12 12 10 5 7 8 5 4 2 1 1 2 2 2 3 3 3 3 3 4 4 5 5 5 7
3 3 3 5 5 5 6 8 10 11 11 9 9 7 5 5 6 7 7 8 12 10 5 6 6 4 2 1 1 1 2 3 3 3 3 3 3 4 4 4 5 5 6 6
1 1 2 2 3 5 5 6 7 8 9 10 8 6 6 7 9 8 7 7 9 9 5 3 2 2 1 1 2 2 3 3 4 3 3 4 4 5 5 5 6 6 6 7
1 2 3 3 4 4 4 5 7 8 9 10 10 7 7 8 8 8 8 6 6 5 3 3 2 1 0 1 2 3 3 3 3 4 4 4 4 4 5 6 6 6 6 7
Wind_Direction
265 278 272 257 256 248 240 246 258 271 279 289 298 302 304 299 285 276 280 282 280 238 147 114 95 89 92 94 98 107 115 120 122 120 118 116 116 115 112 109 106 104 104 103
268 259 257 259 257 254 254 253 257 273 281 286 300 305 318 323 314 296 287 290 291 127 120 112 102 96 95 95 99 108 116 120 120 119 116 114 112 109 105 102 101 102 105 109
278 304 299 266 236 234 250 260 267 277 289 311 317 334 352 347 342 335 329 345 79 103 103 100 98 100 101 102 104 109 116 119 119 118 115 114 113 108 107 106 106 106 114 122
291 310 278 194 152 203 267 277 271 280 297 311 323 357 25 9 357 353 9 53 78 88 88 87 91 95 98 100 104 108 111 114 114 114 112 109 108 107 107 109 114 118 119 116
274 286 277 272 151 223 273 282 289 306 316 327 329 330 43 19 18 30 48 66 77 85 90 91 93 99 103 103 105 108 108 108 109 111 112 111 110 111 114 114 114 118 122 120
252 280 274 329 116 148 223 263 348 334 327 338 346 352 12 20 34 52 61 71 82 88 92 93 96 101 104 105 105 106 107 107 107 109 109 110 112 112 109 111 114 115 113 111
234 255 272 289 320 227 288 299 331 332 334 359 37 54 59 56 57 65 74 79 85 91 94 99 104 107 108 108 109 112 112 110 108 106 107 108 106 102 103 104 108 111 126 212
200 224 252 269 340 289 284 309 321 332 18 87 101 90 82 80 79 82 87 94 99 103 105 107 110 112 110 109 114 115 111 105 101 98 101 99 97 94 92 91 88 83 37 351
204 228 261 309 276 304 1 329 344 4 87 120 117 107 97 87 83 85 89 94 97 102 103 100 102 109 110 110 111 107 102 99 96 92 89 91 92 90 82 71 59 39 24 15
271 270 279 329 51 46 44 19 14 51 108 121 118 114 106 99 93 87 83 86 91 94 94 91 90 93 99 104 105 103 100 96 93 91 85 78 75 70 63 60 49 34 24 13
256 273 284 93 65 56 69 65 66 67 84 109 118 116 112 105 99 96 90 86 91 97 97 95 94 91 91 96 101 97 93 89 85 83 87 80 73 70 65 73 85 57 18 5
244 315 7 45 70 76 92 89 95 98 93 96 109 115 112 106 101 99 97 97 99 98 98 95 92 87 81 84 91 96 92 84 80 78 74 70 62 47 95 92 47 347 320 318
263 329 94 115 93 90 100 100 100 104 107 106 103 108 110 108 104 102 102 102 103 101 98 94 87 80 72 75 81 84 88 85 78 72 66 55 43 34 12 341 317 309 312 317
9 140 217 167 131 107 104 102 100 98 97 100 106 108 110 108 104 103 103 103 103 100 95 91 86 76 70 76 80 79 76 70 72 68 58 49 39 25 15 5 348 338 340 334
313 140 105 107 107 109 114 116 115 112 111 109 111 113 114 112 109 105 102 102 100 95 92 90 85 75 69 75 78 75 70 62 61 60 52 39 25 12 5 357 341 329 329 336
65 76 110 129 139 141 143 142 136 132 129 124 118 112 110 109 107 102 96 99 104 100 95 90 84 77 73 77 79 76 69 62 55 46 44 33 17 6 1 353 341 336 333 325
170 199 189 178 171 170 167 156 146 142 135 127 123 120 118 114 106 98 91 88 93 93 91 92 88 78 70 71 77 83 84 66 49 45 40 27 6 359 355 346 336 331 325 325
256 239 197 187 181 175 162 146 142 139 134 130 129 129 127 123 119 114 108 102 95 85 78 86 89 81 70 64 68 72 77 72 57 46 24 14 355 339 336 338 333 329 324 328
284 262 211 181 170 163 153 146 142 135 132 135 136 131 122 119 120 119 116 111 110 106 101 104 104 88 77 65 69 69 70 60 43 34 18 351 354 353 346 334 326 324 324 326
338 341 145 143 143 144 143 140 137 136 139 138 130 125 123 124 126 123 113 101 105 122 125 114 100 93 88 71 69 68 60 49 31 10 359 347 339 333 330 329 327 320 319 318
354 15 107 124 125 130 138 142 143 143 141 138 137 135 133 130 125 121 117 109 104 116 119 118 103 100 92 88 71 66 51 32 13 357 344 335 329 326 324 324 323 319 316 316
350 25 103 118 124 128 132 137 141 141 138 134 131 133 133 131 125 111 103 123 133 131 116 105 104 110 108 88 71 63 39 10 348 335 328 324 321 316 311 309 303 302 303 303
358 46 97 118 126 126 124 130 137 140 139 140 143 145 142 136 134 131 125 128 131 131 117 113 124 120 104 83 69 42 3 337 326 323 315 304 296 291 292 295 293 295 297 298
18 56 85 103 113 125 130 127 121 120 121 123 128 134 135 129 113 99 124 140 139 125 114 129 128 118 98 78 50 2 329 316 308 300 294 291 290 290 289 289 290 291 291 295
42 67 95 116 125 126 123 121 118 120 119 118 114 109 108 115 123 126 123 131 134 121 111 126 127 114 88 53 358 319 302 287 280 283 287 298 296 292 286 284 284 288 291 291
35 89 113 120 119 124 134 138 138 138 134 130 121 110 107 108 113 116 113 113 121 124 119 112 112 104 69 347 309 297 292 301 314 312 295 289 285 284 285 286 289 288 288 288
94 103 101 99 116 134 144 148 150 152 149 143 134 128 123 120 117 116 114 112 113 117 121 123 119 99 325 299 292 291 293 292 288 285 284 281 280 279 282 284 285 286 288 288